Home   Weather   Township of Fairfield   Past weeks
Flag for USA

Past Weather in Township of Fairfield, Illinois, USA — Yesterday and Last 2 Weeks

Now
23 °F

Clear.


Feels Like: 18 °F
Forecast: 44 / 26 °F
Wind: 3 mph from Southwest

Location: Davenport Municipal Airport

Current Time: Dec 7, 2019 at 12:48:47 am

Latest Report: Dec 6, 2019 at 11:52 pm


Visibility: 10 mi

Pressure: 30.40 "Hg

Humidity: 88%

Dew Point: 20 °F

Location of Township of FairfieldLocation

Past Weather in Township of Fairfield — Graph

°F

Township of Fairfield Temperature Yesterday

Maximum temperature yesterday: 40 °F (at 12:52 pm)
Minimum temperature yesterday: 25 °F (at 9:52 pm)
Average temperature yesterday: 34 °F

High & Low Weather Summary for the Past Weeks

 TemperatureHumidityPressure
High55 °F (Nov 25, 12:52 pm)97% (Nov 26, 11:03 pm)30.55 "Hg (Nov 26, 11:03 pm)
Low24 °F (Nov 23, 3:52 am)51% (Nov 24, 1:52 pm)29.24 "Hg (Nov 27, 1:52 am)
Average36 °F79%29.90 "Hg
* Reported Nov 21 10:52 pm — Dec 6 10:52 pm, Township of Fairfield. Weather by CustomWeather, © 2019

Note: Actual official high and low records may vary slightly from our data, if they occured in-between our weather recording intervals... More about our weather records

Township of Fairfield Weather History for the Previous 24 Hours

Scroll right to see more
 ConditionsComfort  
Time TempWeatherWind HumidityBarometerVisibility
10:52 pm
Fri, Dec 6
25 °FClear.3 mph85%30.41 "Hg10 mi
9:52 pm25 °FClear.5 mph85%30.41 "Hg10 mi
8:52 pm27 °FClear.6 mph81%30.42 "Hg10 mi
7:52 pm28 °FClear.6 mph78%30.41 "Hg10 mi
6:52 pm30 °FClear.No wind75%30.40 "Hg10 mi
5:52 pm31 °FClear.3 mph76%30.39 "Hg10 mi
4:52 pm35 °FClear.5 mph61%30.37 "Hg10 mi
3:52 pm39 °FSunny.7 mph57%30.36 "Hg10 mi
2:52 pm40 °FSunny.5 mph51%30.34 "Hg10 mi
1:52 pm40 °FSunny.10 mph53%30.34 "Hg10 mi
12:52 pm40 °FSunny.10 mph53%30.33 "Hg10 mi
11:52 am39 °FSunny.7 mph57%30.34 "Hg10 mi
10:52 am37 °FSunny.10 mph62%30.35 "Hg10 mi
9:52 am35 °FSunny.16 mph67%30.33 "Hg10 mi
9:25 am34 °FScattered clouds.14 mph70%30.32 "Hg10 mi
8:52 am34 °FOvercast.8 mph70%30.32 "Hg10 mi
7:52 am33 °FOvercast.16 mph72%30.28 "Hg10 mi
6:52 am33 °FOvercast.14 mph75%30.25 "Hg10 mi
6:21 am34 °FPassing clouds.17 mph70%30.22 "Hg10 mi
5:52 am32 °FClear.16 mph82%30.21 "Hg10 mi
4:52 am34 °FClear.20 mph79%30.16 "Hg10 mi
4:35 am34 °FPassing clouds.21 mph82%30.14 "Hg10 mi
3:52 am36 °FOvercast.20 mph79%30.11 "Hg9 mi
2:52 am36 °FOvercast.16 mph82%30.09 "Hg7 mi
2:03 am36 °FPassing clouds.15 mph82%30.07 "Hg8 mi
1:52 am36 °FPassing clouds.14 mph82%30.06 "Hg8 mi
12:52 am37 °FClear.12 mph82%30.02 "Hg10 mi
Weather by CustomWeather, © 2019

See weather overview

Advertising